Regional Weather Roundup
Issued by NWS

Home | Current Version | Previous Version | Text Only | Print | Product List | Glossary On
Versions: 1 2 3 4 5 6 7 8 9 10 11 12 13 14 15 16 17 18 19 20 21 22 23 24 25 26 27 28 29 30 31 32 33 34 35 36 37 38 39 40 41 42 43 44 45 46 47 48 49 50
000
ASUS43 KLMK 251910
RWRKY
KENTUCKY REGIONAL WEATHER ROUNDUP
NATIONAL WEATHER SERVICE LOUISVILLE KY
300 PM EDT MON SEP 25 2017

NOTE "FAIR" INDICATES FEW OR NO CLOUDS BELOW 12,000 FEET
WITH NO SIGNIFICANT WEATHER AND/OR OBSTRUCTIONS TO VISIBILITY.

KYZ001>023-026-027-061>063-070>075-252000-
WESTERN AND SOUTH CENTRAL KENTUCKY

CITY           SKY/WX    TMP DP  RH WIND       PRES   REMARKS
PADUCAH        SUNNY     88  65  46 CALM      29.96F HX  90
HENDERSON      MOSUNNY   87  67  51 N5        29.98F HX  90
OWENSBORO      PTSUNNY   88  67  49 VRB5      29.98F HX  91
HOPKINSVILLE   SUNNY     87  64  46 S3        29.98F
BOWLING GREEN  SUNNY     88  63  43 CALM      29.99F
GLASGOW        MOSUNNY   89  65  45 NE3       30.00F HX  91
$$

KYZ024-025-028>034-038-045-046-053-252000-
NORTH CENTRAL KENTUCKY

CITY           SKY/WX    TMP DP  RH WIND       PRES   REMARKS
LOUISVILLE/SDF MOSUNNY   88  65  46 CALM      29.99F HX  90
LOUISVILLE/LOU SUNNY     86  67  52 SW5       30.00F
FORT KNOX      MOSUNNY   85  66  53 W2        29.99F
$$

KYZ035>037-039>044-047>052-055>060-089>105-252000-
NORTHEAST KENTUCKY

CITY           SKY/WX    TMP DP  RH WIND       PRES   REMARKS
LEXINGTON      CLOUDY    86  66  51 NE5       30.03F
COVINGTON      PTSUNNY   88  62  41 VRB5      30.02F
FRANKFORT      SUNNY     89  62  40 NE3       30.00F
$$

KYZ054-064>069-076>088-106>120-252000-
SOUTHEAST KENTUCKY

CITY           SKY/WX    TMP DP  RH WIND       PRES   REMARKS
JACKSON        MOSUNNY   84  62  47 VRB5      30.05F
LONDON         MOSUNNY   84  59  42 VRB3      30.04F
SOMERSET       CLOUDY    82  55  39 CALM      30.04F
MIDDLESBORO    MOSUNNY   83  61  48 CALM      30.05F
MONTICELLO     CLEAR     84  61  45 VRB7G18   30.04F
$$





USA.gov is the U.S. government's official web portal to all federal, state and local government web resources and services.